TimePDT,TemperatureF,Dew PointF,Humidity,Sea Level PressureIn,VisibilityMPH,Wind Direction,Wind SpeedMPH,Gust SpeedMPH,PrecipitationIn,Events,Conditions,WindDirDegrees,DateUTC
12:56 AM,54.0,46.0,75,30.30,10.0,SE,5.8,-,N/A,,Overcast,140,2014-04-07 07:56:00
1:19 AM,54.0,46.9,77,30.29,10.0,SE,9.2,-,N/A,,Overcast,130,2014-04-07 08:19:00
1:56 AM,54.0,46.9,77,30.30,10.0,SE,9.2,-,N/A,,Overcast,140,2014-04-07 08:56:00
2:56 AM,55.0,46.9,74,30.30,10.0,SE,10.4,-,N/A,,Overcast,140,2014-04-07 09:56:00
3:56 AM,55.0,46.9,74,30.30,10.0,SE,6.9,-,N/A,,Overcast,140,2014-04-07 10:56:00
4:56 AM,54.0,46.9,77,30.30,10.0,SE,4.6,-,N/A,,Overcast,140,2014-04-07 11:56:00
5:56 AM,54.0,46.9,77,30.29,10.0,ESE,4.6,-,N/A,,Overcast,120,2014-04-07 12:56:00
6:45 AM,53.1,46.9,80,30.27,10.0,ESE,4.6,-,N/A,,Overcast,110,2014-04-07 13:45:00
6:56 AM,53.1,46.9,80,30.28,10.0,ESE,4.6,-,N/A,,Overcast,120,2014-04-07 13:56:00
7:56 AM,54.0,48.0,80,30.28,10.0,East,4.6,-,N/A,,Overcast,90,2014-04-07 14:56:00
8:56 AM,57.0,48.0,72,30.27,10.0,East,9.2,-,N/A,,Overcast,100,2014-04-07 15:56:00
9:56 AM,60.1,48.9,67,30.25,10.0,SE,9.2,-,N/A,,Mostly Cloudy,130,2014-04-07 16:56:00
10:56 AM,62.1,50.0,65,30.25,10.0,SE,5.8,-,N/A,,Mostly Cloudy,130,2014-04-07 17:56:00
11:56 AM,64.0,50.0,60,30.23,10.0,SE,4.6,-,N/A,,Mostly Cloudy,130,2014-04-07 18:56:00
12:56 PM,59.0,48.0,67,30.22,10.0,NNW,9.2,-,N/A,,Mostly Cloudy,330,2014-04-07 19:56:00
1:56 PM,62.1,48.9,62,30.19,10.0,NNW,9.2,-,N/A,,Overcast,330,2014-04-07 20:56:00
2:56 PM,62.1,48.0,60,30.17,10.0,NNW,10.4,-,N/A,,Mostly Cloudy,330,2014-04-07 21:56:00
3:56 PM,60.1,50.0,69,30.15,10.0,WSW,9.2,-,N/A,,Mostly Cloudy,250,2014-04-07 22:56:00
4:56 PM,57.9,48.9,72,30.13,10.0,WSW,9.2,-,N/A,,Mostly Cloudy,250,2014-04-07 23:56:00
5:56 PM,57.9,48.9,72,30.12,10.0,WSW,5.8,-,N/A,,Mostly Cloudy,250,2014-04-08 00:56:00
6:56 PM,57.0,48.0,72,30.11,10.0,Calm,Calm,-,N/A,,Mostly Cloudy,0,2014-04-08 01:56:00
7:56 PM,54.0,46.9,77,30.11,10.0,SW,9.2,-,N/A,,Mostly Cloudy,230,2014-04-08 02:56:00
8:56 PM,52.0,46.9,83,30.13,10.0,West,4.6,-,N/A,,Mostly Cloudy,260,2014-04-08 03:56:00
9:56 PM,52.0,46.0,80,30.14,10.0,SW,3.5,-,N/A,,Mostly Cloudy,230,2014-04-08 04:56:00
10:56 PM,52.0,46.9,83,30.15,10.0,SW,6.9,-,N/A,,Scattered Clouds,230,2014-04-08 05:56:00
11:56 PM,52.0,46.9,83,30.15,10.0,SW,4.6,-,N/A,,Scattered Clouds,230,2014-04-08 06:56:00